THOR ABLESTAR R/B, 893

Orbit data source: Space-Track

THOR ABLESTAR R/B, 893 is space debris in LEO originally from a launch on Tue, 06 Oct 1964 UTC launched from the Air Force Western Test Range (AFWTR). Debris objects in space refer to the collection of defunct objects orbiting the Earth. Examples of debris include non-operational satellites, rocket bodies, and fragments generated from explosions, collisions, or faulty payload assembly.

Loading next visibility...
THOR ABLESTAR R/B details
Identifier
893, 1964-063A
Orbit
LEO
Last TLE update23 hours ago
Origin
Flag of USUSAF SSD (US)
ManufacturerAerojet
MissionSpacecraft
Bus & MotorABLESTAR, Unknown motor
Mass~600 kg wet, 600 kg dry
Launch date (UTC)
1964-10-06 (60 years ago)
Launch vehicleUnknown
Launch site
Air Force Western Test Range (AFWTR)
Object type
Payload
Rocket body
Debris
Shape & HBRCyl, 4.8 m
Radar Cross Section6.048 m², Large (>1 m²)

Expand to show TLE details & history

TLE from 23 hours ago
0 THOR ABLESTAR R/B
1 00893U 64063A   25013.49605406  .00000069  00000-0  85291-4 0  9998
2 00893  90.2189  63.2553 0023853 303.5686 182.4800 13.56269382981586
Epoch: 2025-01-13T11:54Z
Definitive object data (Epoch: 2025-01-13T11:54:19.07Z)
Latitude54.05682°
Longitude-48.24006°
Altitude1,075.951 km
Speed7.31 km/s
True Right ascension16h 14m 13s
True Declination53° 54' 01"
Sunlit
Object was in daylight at TLE epoch
Visualization TLE readout
Latitude86.60944°
Longitude-44.84082°
Altitude1,078.859 km
Speed7.312 km/s
Apparent Right ascension23h 01m 22s
Apparent Declination34° 50' 38"
Sunlit
Object is in daylight
Visualization observer readout
Local Sidereal Time11:21:52
Azimuth4.354° NNE
Elevation-15.091°
Doppler factor1
Orbital elements
Apogee altitude1,064.031 km
Perigee altitude1,028.612 km
Semi-major axis7,424.459 km
Eccentricity0.0023853
Inclination90.2189°
RAAN63.2553°
Arg. of periapsis303.5686°
True anomaly182.46821°
Mean anomaly182.48°
Eccentric anomaly182.4741°
Mean motion3.3927 °/min
BSTAR0.000085291
Orbital period106.11 mins
Loading maneuver chart data...
Loading historical data...
Loading historical data...
Loading historical data...
Loading historical data...
Loading historical data...
Loading historical data...
Loading historical data...

THOR ABLESTAR R/B Visibility forecast

Observer location: undefined°, undefined

Span
Click to sort rows by Start time (UTC) header in descending order
Start Az.
Max El. time (UTC)
Max El. Az.
Max El.
End time (UTC)
End Az.
10 mins2025-01-14 14:26:43.692Z26.6° NE2025-01-14 14:31:43.692Z79.816° E25.871°2025-01-14 14:36:43.692Z136.901° SSE
10 mins2025-01-14 16:13:43.692Z341.519° N2025-01-14 16:17:43.692Z286.884° WNW34.804°2025-01-14 16:23:43.692Z212.216° SW
9 mins2025-01-15 02:22:43.692Z121.98° SE2025-01-15 02:26:43.692Z74.068° E25.023°2025-01-15 02:31:43.692Z21.627° NNE
10 mins2025-01-15 04:07:43.692Z207.383° SW2025-01-15 04:12:43.692Z284.78° WNW35.322°2025-01-15 04:17:43.692Z342.413° N
|